FW5354 Weather Reports


time (UTC)temp
F
wind
direction
speed
knots
gust
knots
rain 1hr
in
rain 24hr
in
rain mn
in
humidity
%
barometer
mb
20260502163145 68 236 1.7 7.0 0.00 1.40 0.00 64 1019.0
20260502161541 68 112 1.7 6.1 0.00 1.40 0.00 64 1019.0
20260502151531 64 282 3.5 8.7 0.00 1.50 0.00 74 1018.7
20260502123111 53 241 0.0 2.6 0.00 2.13 1.71 68 1017.0
20260502121501 53 143 0.0 0.9 0.00 2.13 1.71 68 1016.9
20260502120114 53 193 0.0 1.7 0.00 2.13 1.71 69 1016.7
20260502114603 53 212 0.0 2.6 0.00 2.42 1.71 69 1016.4
20260502113056 53 172 0.0 1.7 0.00 2.42 1.71 70 1016.2
20260502111559 53 179 0.0 2.6 0.00 2.42 1.71 70 1016.1
20260502110053 53 236 0.9 2.6 0.00 2.42 1.71 71 1016.1
20260502104554 53 181 0.0 3.5 0.00 2.78 1.71 72 1015.9
20260502103050 54 217 0.9 2.6 0.00 2.78 1.71 73 1015.7
20260502101554 54 176 0.0 2.6 0.00 2.78 1.71 74 1015.6
20260502100109 54 168 0.0 2.6 0.00 2.78 1.71 74 1015.2
20260502070038 55 228 0.9 5.2 0.00 4.61 1.71 64 1014.3
20260502064540 55 112 0.9 5.2 0.00 4.62 1.71 64 1014.2
20260502063031 55 244 0.0 3.5 0.00 4.62 1.71 64 1014.0
20260502061531 55 282 0.9 4.3 0.00 4.62 1.71 64 1013.9
20260502060031 55 210 0.9 6.1 0.00 4.62 1.71 64 1013.9
20260502054530 55 267 0.9 7.8 0.00 5.09 1.71 64 1013.9
20260502053029 55 221 1.7 7.0 0.00 5.09 1.71 64 1013.7
20260502051543 55 323 0.9 7.0 0.00 5.09 1.71 64 1013.7
20260502050023 55 231 3.5 8.7 0.00 5.09 1.71 64 1013.6
20260502044521 56 262 1.7 7.8 0.00 5.48 1.71 64 1013.5
20260502043020 56 269 1.7 7.0 0.00 5.48 1.71 64 1013.5
20260502041521 56 115 1.7 9.6 0.00 5.48 1.71 64 1013.3
20260502040019 56 289 2.6 7.8 0.00 5.48 1.71 64 1013.4
20260502034535 56 319 2.6 7.0 0.00 5.48 1.71 64 1013.7
20260502033024 55 168 2.6 7.0 0.00 5.48 1.71 64 1013.3
20260502031517 55 261 1.7 6.1 0.00 5.48 1.71 64 1013.1
20260502030015 56 232 1.7 8.7 0.02 5.48 1.71 64 1012.7
20260502024511 56 307 0.9 7.8 0.04 5.48 1.71 64 1012.6
20260502023009 57 250 1.7 6.1 0.06 5.48 1.71 63 1011.9
20260502021508 56 110 2.6 7.8 0.10 5.48 1.71 63 1011.8
20260502020006 57 103 1.7 9.6 0.17 5.47 1.70 63 1011.4
20260502014504 57 77 2.6 7.8 0.17 5.45 1.68 63 1011.7
20260502013001 58 234 1.7 7.0 0.16 5.42 1.65 63 1011.3
20260502011505 58 285 2.6 8.7 0.14 5.39 1.62 63 1010.8
20260502010002 59 298 1.7 4.3 0.08 5.31 1.54 62 1011.1
20260502004603 59 253 0.0 7.0 0.10 5.28 1.51 62 1011.6
20260502003058 59 175 0.9 6.1 0.17 5.27 1.50 62 1009.7
20260502001552 59 214 1.7 7.0 0.15 5.25 1.48 62 1009.9
20260502000051 59 269 0.9 7.0 0.20 5.24 1.47 62 1010.5
20260501234555 59 252 0.0 5.2 0.25 5.19 1.42 62 1010.8
20260501233048 60 219 1.7 8.7 0.16 5.09 1.33 62 1009.7
20260501231555 60 34 0.0 5.2 0.16 5.09 1.33 62 1009.0
20260501230045 60 289 0.9 6.1 0.13 5.07 1.30 62 1008.6
20260501224544 60 238 0.9 10.4 0.01 4.94 1.17 62 1009.6
20260501223042 60 42 3.5 7.8 0.03 4.94 1.17 62 1008.0
20260501221542 61 250 1.7 7.8 0.05 4.94 1.17 62 1007.5
20260501220043 61 259 2.6 6.1 0.06 4.94 1.17 62 1008.2
20260501214554 61 300 1.7 6.1 0.08 4.94 1.17 62 1008.8
20260501213048 61 88 1.7 7.0 0.09 4.91 1.13 62 1008.9
20260501211539 62 288 1.7 5.2 0.09 4.88 1.12 61 1008.5
20260501210039 62 197 0.9 7.8 0.14 4.88 1.11 61 1008.0
20260501204538 62 117 0.9 7.0 0.19 4.87 1.10 61 1007.8
20260501203037 62 241 0.9 5.2 0.14 4.82 1.05 61 1008.5
20260501201542 62 142 2.6 7.0 0.13 4.80 1.04 61 1007.0
20260501200035 63 200 2.6 7.0 0.11 4.76 0.99 61 1006.6
20260501194537 63 224 1.7 6.1 0.08 4.69 0.92 61 1008.1
20260501193034 63 87 0.9 4.3 0.16 4.68 0.91 61 1007.3
20260501191533 63 265 0.9 3.5 0.18 4.68 0.91 61 1007.4
20260501190033 63 208 0.0 1.7 0.18 4.65 0.88 61 1007.8
20260501184532 62 214 0.0 3.5 0.19 4.62 0.85 61 1007.4
20260501183032 62 247 0.0 5.2 0.11 4.51 0.75 61 1007.3
20260501181534 62 249 0.9 7.0 0.11 4.50 0.73 61 1006.2
20260501180037 62 243 2.6 9.6 0.10 4.48 0.71 61 1005.8
20260501174526 62 184 1.7 7.0 0.07 4.44 0.67 61 1007.3
20260501173033 63 255 1.7 7.8 0.10 4.41 0.64 60 1007.9